Location: Saluda
(35.2377°N, 82.3468°W)
Time: 07:50:06
(UTC+00:00)

Vanguard 2 - Pass Details

Date: 05 October 2022
Orbit: 553 x 2933 km, 32.9° (Epoch: 04 December)

Event Time Altitude Azimuth Distance (km) Brightness Sun altitude
Rises 01:46:14 0° 279° (W) 6,701 13.4 -32.5°
Reaches altitude 10° 01:52:30 10° 265° (W) 5,761 12.6 -33.7°
Maximum altitude 02:03:27 20° 226° (SW) 4,778 11.7 -35.8°
Drops below altitude 10° 02:13:22 10° 186° (S) 5,111 11.5 -37.7°
Enters shadow 02:15:03 - 181° (S) 5,288 11.6 -38.0°
